This is the latest recevied weather packets stored in our database for station/object KC0RPY. If no packets are shown the sender has not sent any weather packets the latest 10 day(s).
| Time | Temp. | Humidity | Pressure | Rain* | Wind** | Luminosity | Snow |
|---|---|---|---|---|---|---|---|
| 1777996968 | 7.78° C | 98% | 1013.9 hPa | 0 mm | - | 17 W/m² | - |
| 1777996664 | 7.78° C | 98% | 1013.9 hPa | 0 mm | - | 19 W/m² | - |
| 1777996360 | 7.78° C | 98% | 1013.9 hPa | 0 mm | - | 23 W/m² | - |
| 1777996057 | 7.78° C | 98% | 1013.9 hPa | 0 mm | - | 55 W/m² | - |
| 1777995753 | 7.78° C | 98% | 1013.2 hPa | 0 mm | - | 92 W/m² | - |
| 1777995450 | 7.78° C | 98% | 1013.2 hPa | 0 mm | - | 94 W/m² | - |
| 1777995147 | 7.78° C | 98% | 1013.5 hPa | 0 mm | - | 109 W/m² | - |
| 1777994844 | 7.78° C | 98% | 1013.2 hPa | 0 mm | - | 93 W/m² | - |
| 1777994541 | 7.78° C | 98% | 1013.2 hPa | 0 mm | - | 86 W/m² | - |
| 1777994235 | 7.22° C | 98% | 1013.2 hPa | 0 mm | - | 66 W/m² | - |
| 1777993933 | 7.22° C | 98% | 1013.2 hPa | 0 mm | - | 67 W/m² | - |
| 1777993629 | 7.22° C | 98% | 1012.8 hPa | 0 mm | - | 83 W/m² | - |
| 1777993327 | 7.22° C | 98% | 1012.8 hPa | 0 mm | - | 85 W/m² | - |
| 1777993026 | 7.22° C | 98% | 1012.8 hPa | 0 mm | - | 108 W/m² | - |
| 1777992725 | 7.22° C | 98% | 1012.8 hPa | 0 mm | - | 104 W/m² | - |
| 1777992422 | 7.22° C | 98% | 1012.5 hPa | 0 mm | - | 102 W/m² | - |
| 1777992121 | 7.78° C | 98% | 1012.8 hPa | 0 mm | - | 131 W/m² | - |
| 1777991817 | 8.33° C | 91% | 1012.5 hPa | 0 mm | - | 78 W/m² | - |
| 1777991515 | 8.33° C | 92% | 1012.5 hPa | 0 mm | - | 186 W/m² | - |
| 1777991211 | 8.33° C | 93% | 1012.5 hPa | 0 mm | - | 323 W/m² | - |
| 1777990909 | 8.33° C | 94% | 1012.5 hPa | 0 mm | - | 179 W/m² | - |
| 1777990607 | 8.33° C | 94% | 1012.5 hPa | 0 mm | - | 150 W/m² | - |
| 1777989999 | 8.33° C | 94% | 1013.2 hPa | 0 mm | - | 29 W/m² | - |
| 1777989697 | 8.33° C | 93% | 1013.2 hPa | 0 mm | - | 34 W/m² | - |
| 1777989392 | 8.33° C | 92% | 1012.8 hPa | 0 mm | - | 35 W/m² | - |
* Rain latest hour (hover to see other rain measurements)
** Current wind speed in m/s (hover to see current wind gust speed)